Regional Weather Roundup
Issued by NWS

Home | Current Version | Previous Version | Graphics & Text | Print | Product List | Glossary Off
Versions: 1 2 3 4 5 6 7 8 9 10 11 12 13 14 15 16 17 18 19 20 21 22 23 24 25 26 27 28 29 30 31 32 33 34 35 36 37 38 39 40 41 42 43 44 45 46 47 48 49 50

000
ASUS43 KMPX 031310
RWRMN
WEATHER ROUNDUP FOR MINNESOTA
NATIONAL WEATHER SERVICE TWIN CITIES/CHANHASSEN MN
700 AM CST TUE MAR 03 2015


NOTE: "FAIR" INDICATES FEW OR NO CLOUDS BELOW 12,000 FEET WITH NO
SIGNIFICANT WEATHER AND/OR OBSTRUCTIONS TO VISIBILITY. N/A MEANS
CURRENT SKY AND/OR WEATHER CONDITIONS ARE NOT AVAILABLE.

MNZ060>063-068>070-031400-
   Twin Cities Metro

CITY           SKY/WX    TMP DP  RH WIND       PRES   REMARKS
TWIN CITIES    CLOUDY    22  14  71 SE8       29.71F WCI  12
ST PAUL        CLOUDY    23  15  71 SE10      29.72F WCI  12
CRYSTAL        CLOUDY    24  15  68 SE8       29.69F WCI  15
BLAINE         CLOUDY    25  16  68 SE7       29.69F WCI  17
LAKEVILLE      CLOUDY    21  18  86 SE5       29.70F WCI  15
EDEN PRAIRIE   CLOUDY    23  15  71 SE7       29.69F WCI  15
SOUTH ST PAUL  MOCLDY    23  16  72 SE5       29.71F WCI  17
LAKE ELMO      CLOUDY    23  18  80 SE5       29.71F WCI  17
$$
MNZ001>005-007-008-013>017-022>024-027-028-031400-
   Northwest Minnesota

CITY           SKY/WX    TMP DP  RH WIND       PRES   REMARKS
BEMIDJI        LGT SNOW  24  21  91 W16G22    29.62S VSB 1   WCI  10
HALLOCK        CLOUDY    12   7  79 NW20G25   29.78S WCI  -6
ROSEAU         CLOUDY    16  10  79 W16       29.69R WCI   0
WARROAD        LGT SNOW  19  16  86 W18G24    29.66S WCI   4
THIEF RVR FALL CLOUDY    14   9  79 NW24      29.73S WCI  -5
CROOKSTON      CLOUDY    16  10  79 N24G33    29.79R WCI  -3
FOSSTON        LGT SNOW  16  12  86 NW18      29.69S WCI  -1
DETROIT LAKES  LGT SNOW  21  19  93 NW18      29.69R WCI   6
MOORHEAD       MIX PCPN  19  18  93 NW22      29.75S WCI   3
PARK RAPIDS    LGT SNOW  22  20  92 SW3       29.62F FOG
MAHNOMEN       LGT SNOW  18  15  88 NW21      29.69R WCI   2
$$
MNZ006-009>011-018-025>026-031400-
   North Central Minnesota

CITY           SKY/WX    TMP DP  RH WIND       PRES   REMARKS
BAUDETTE       LGT SNOW  21  16  81 W18       29.61S WCI   6
FLAG ISLAND    LGT SNOW  19  16  86 NW20G26   29.62R WCI   4
INTL FALLS     LGT SNOW  24  17  74 SW12      29.57F WCI  13
WASKISH        CLOUDY    23  19  86 W10       29.62S WCI  12
BIG FORK       LGT SNOW  21  19  93 S8        29.61F WCI  12
LONGVILLE      LGT SNOW  19  18  93 S6        29.64F WCI  11
GRAND RAPIDS   CLOUDY    19  16  86 S6        29.63F VSB 1   WCI  11
CRANE LAKE     LGT SNOW  19  16  86 S7        29.62F WCI  10
ORR            LGT SNOW  19  16  86 S10       29.58F WCI   8
COOK           LGT SNOW  19  16  86 S5        29.62F WCI  13
WALKER         LGT SNOW  21  19  92 SW6       29.62F WCI  13
$$
MNZ012-019>021-037-031400-
   Northeast Minnesota

CITY           SKY/WX    TMP DP  RH WIND       PRES   REMARKS
DULUTH         LGT SNOW  19  15  84 S14       29.65F VSB 3/4 WCI   6
ELY            LGT SNOW  19  16  86 SW6       29.62F WCI  11
HIBBING        LGT SNOW  19  16  88 S5        29.63F VSB 3/4 WCI  12
EVELETH        LGT SNOW  21  18  86 SW3       29.64F VSB 1
DULUTH HARBOR  LGT SNOW  21  19  93 S7        29.72F WCI  13
TWO HARBORS    LGT SNOW  23  18  80 S9        29.67F WCI  13
SILVER BAY     LGT SNOW  21  19  93 S5        29.67F WCI  15
GRAND MARAIS     N/A     26  24  92 SW17      29.72F WCI  13
G MARAIS ARPRT LGT SNOW  18  14  86 S7        29.64F WCI   8
$$
MNZ029>031-032-039>041-046>048-054>057-064-031400-
   West Central Minnesota

CITY           SKY/WX    TMP DP  RH WIND       PRES   REMARKS
FERGUS FALLS   LGT SNOW  19  18  93 NW23G30   29.73R WCI   2
WHEATON        LGT SNOW  19  18  93 NW24G32   29.75R WCI   2
MORRIS         SNOW      21  21 100 S7        29.67S VSB 1/2 WCI  13
ALEXANDRIA     SNOW      21  19  92 S9        29.66R VSB 1/2 WCI  11
ELBOW LAKE     LGT SNOW  22  21  96 SW9       29.68R WCI  12
WADENA         LGT SNOW  19  19 100 SW3       29.64F VSB 3/4
GLENWOOD       LGT SNOW  21  19  93 S8        29.67F WCI  12
APPLETON       LGT SNOW  25  21  86 S5        29.70R WCI  19
BENSON         LGT SNOW  21  19  93 S7        29.69R WCI  13
ORTONVILLE     LGT SNOW  23  21  93 CALM      29.71R VSB 1
MADISON        LGT SNOW  25  23  93 S6        29.71R WCI  18
WILLMAR        LGT SNOW  23  19  86 CALM      29.71R
$$
MNZ033>034-036-042>043-049>051-058-059-031400-
   Central Minnesota

CITY           SKY/WX    TMP DP  RH WIND       PRES   REMARKS
ST CLOUD       LGT SNOW  20  17  88 SE7       29.68F VSB 3/4 WCI  11
SAUK CENTRE    LGT SNOW  19  18  95 S7        29.67F WCI  10
PAYNESVILLE    LGT SNOW  19  17  95 SE5       29.69S WCI  12
AITKIN         LGT SNOW  21  16  79 S6        29.65F WCI  14
PINE RIVER     LGT SNOW  19  18  93 S5        29.68F VSB 1   WCI  13
BRAINERD       LGT SNOW  19  17  92 S8        29.66F VSB 1   WCI   9
STAPLES        LGT SNOW  19  18  93 S5        29.64F VSB 1   WCI  13
LITTLE FALLS   LGT SNOW  21  18  86 S6        29.67F WCI  14
LITCHFIELD     LGT SNOW  21  19  93 SE5       29.69F WCI  15
BUFFALO        LGT SNOW  22  16  76 CALM      29.70F
MAPLE LAKE     LGT SNOW  23  19  85 SE3       29.70F
$$
MNZ037-044-045-052-053-031400-
   East Central Minnesota

CITY           SKY/WX    TMP DP  RH WIND       PRES   REMARKS
PRINCETON      LGT SNOW  21  16  79 SE3       29.68F
MORA           LGT SNOW  19  14  79 SE3       29.71F
CAMBRIDGE      CLOUDY    23  12  63 SE3       29.68F
RUSH CITY      CLOUDY    20  13  73 CALM      29.71F
MOOSE LAKE     LGT SNOW  19  18  93 CALM      29.67F
HINCKLEY       LGT SNOW  19  18  93 CALM      29.71F VSB 3/4
CLOQUET        LGT SNOW  19  16  86 S6        29.66F WCI  11
MCGREGOR       CLOUDY    21  18  86 S9        29.66F WCI  11
$$
MNZ071>073-080-081-089-090-097-098-031400-
   Southwest Minnesota

CITY           SKY/WX    TMP DP  RH WIND       PRES   REMARKS
MONTEVIDEO     SNOW      23  21  93 SW5       29.72R VSB 1/4 WCI  17
GRANITE FALLS  LGT SNOW  22  20  93 S6        29.72R WCI  15
CANBY          SNOW      24  23  95 CALM      29.71R VSB 1/2
MARSHALL       CLOUDY    23  19  86 SW5       29.71R VSB 1   WCI  17
REDWOOD FALLS  SNOW      22  20  92 S9        29.71R VSB 1/2 WCI  12
OLIVIA         LGT SNOW  21  19  93 S5        29.70R VSB 1   WCI  15
PIPESTONE      SNOW      21  21 100 CALM      29.66F VSB 1/2
WINDOM         LGT SNOW  23  21  93 CALM      29.68R
WORTHINGTON    CLOUDY    23  19  86 SW5       29.68S WCI  17
JACKSON        FLURRIES  25  21  86 S5        29.67R WCI  19
TRACY          LGT SNOW  24  22  92 SW9       29.69R VSB 3/4 WCI  15
SLAYTON        LGT SNOW  22  21  94 CALM      29.67S VSB 3/4
$$
MNZ065>067-074>077-082>085-091>093-031400-
   South Central Minnesota

CITY           SKY/WX    TMP DP  RH WIND       PRES   REMARKS
MANKATO        CLOUDY    25  19  80 S10       29.69S WCI  15
NEW ULM        SNOW      21  19  93 S3        29.70R VSB 1/2
ST JAMES       FLURRIES  25  21  86 S3        29.70S
FAIRMONT       CLOUDY    25  19  80 S7        29.67S WCI  17
GLENCOE        LGT SNOW  24  20  87 CALM      29.69S
FARIBAULT      CLOUDY    25  21  86 SE8       29.70F FOG     WCI  16
OWATONNA       CLOUDY    25  21  86 SE13      29.67F WCI  13
WASECA         CLOUDY    23  21  93 SE10      29.70F FOG     WCI  12
ALBERT LEA     CLOUDY    23  23 100 SE8       29.66F FOG     WCI  14
$$
MNZ078>079-086>088-094>096-031400-
   Southeast Minnesota

CITY           SKY/WX    TMP DP  RH WIND       PRES   REMARKS
ROCHESTER      FRZ RAIN  22  20  92 SE12      29.69F FOG     WCI  10
RED WING       LGT SNOW  25  16  68 SE7       29.71F WCI  17
STANTON        LGT SNOW  25  20  81 SE5       29.69F WCI  19
DODGE CENTER   MIX PCPN  23  23 100 S12       29.67F WCI  12
WINONA         CLOUDY    25  23  93 SE7       29.76F FOG     WCI  17
AUSTIN         MIX PCPN  23  21  93 S7        29.68F WCI  15
PRESTON        FOG       22  20  95 SE7       29.71F VSB 1   WCI  13
$$
ABBREVIATIONS USED IN REMARKS
   TC - TEMPERATURES IN CELSIUS
  WCI - WIND CHILL INDEX
   HX - HEAT INDEX
  VSB - VISIBILITY
$$



USA.gov is the U.S. government's official web portal to all federal, state and local government web resources and services.